カタログに戻る

STARLINK-35680

運用中通信VLEO
NORAD 66610·PAYLOAD·🇺🇸 United States

打ち上げ Nov 22, 2025 から Cape Canaveral Space Force Station

Loading…

次のパス (今後24時間)

TLE

最新Source: CelesTrak SupGP

元期: Sep 14, 2026, 22:45 UTC

1 66610C 25270Y   26257.94840278  .00058272  00000+0  21105-2 0  2570
2 66610  43.0006  67.3538 0001460 271.5493 332.8158 15.27550578    14

AllMySatでSTARLINK-35680をリアルタイム追跡

Download on the App Store